| time (UTC) | temp F | wind direction | speed knots | gust knots | rain 1hr in | rain 24hr in | rain mn in | humidity % | barometer mb |
| 20260510205404 | 79 | 51 | 6.1 | 11.3 | 0.00 | 0.00 | 0.00 | 73 | 1012.3 |
| 20260510204504 | 78 | 45 | 6.1 | 12.2 | 0.00 | 0.00 | 0.00 | 73 | 1012.7 |
| 20260510203604 | 78 | 56 | 5.2 | 12.2 | 0.00 | 0.00 | 0.00 | 74 | 1012.9 |
| 20260510202704 | 76 | 53 | 5.2 | 13.0 | 0.00 | 0.00 | 0.00 | 76 | 1013.0 |
| 20260510201804 | 76 | 53 | 5.2 | 13.0 | 0.00 | 0.00 | 0.00 | 75 | 1013.0 |
| 20260510200904 | 75 | 54 | 6.1 | 13.9 | 0.00 | 0.00 | 0.00 | 77 | 1012.9 |
| 20260510200025 | 74 | 46 | 6.1 | 13.9 | 0.00 | 0.00 | 0.00 | 78 | 1013.0 |
| 20260510195404 | 72 | 47 | 6.1 | 11.3 | 0.00 | 0.00 | 0.00 | 80 | 1013.1 |
| 20260510194504 | 72 | 43 | 5.2 | 13.0 | 0.00 | 0.00 | 0.00 | 79 | 1013.5 |
| 20260510193625 | 72 | 44 | 5.2 | 11.3 | 0.00 | 0.00 | 0.00 | 79 | 1013.4 |
| 20260510192704 | 72 | 50 | 6.1 | 12.2 | 0.00 | 0.00 | 0.00 | 78 | 1013.3 |
| 20260510191826 | 73 | 43 | 7.0 | 15.6 | 0.00 | 0.00 | 0.00 | 75 | 1013.2 |
| 20260510190905 | 74 | 47 | 7.8 | 15.6 | 0.00 | 0.00 | 0.00 | 73 | 1013.0 |
| 20260510190005 | 75 | 43 | 6.1 | 12.2 | 0.00 | 0.00 | 0.00 | 72 | 1012.8 |
| 20260510185404 | 75 | 42 | 6.1 | 13.9 | 0.00 | 0.00 | 0.00 | 72 | 1012.7 |
| 20260510184504 | 74 | 59 | 4.3 | 13.0 | 0.00 | 0.00 | 0.00 | 73 | 1012.5 |
| 20260510183604 | 73 | 61 | 2.6 | 7.0 | 0.00 | 0.00 | 0.00 | 73 | 1012.4 |
| 20260510182704 | 73 | 54 | 4.3 | 10.4 | 0.00 | 0.00 | 0.00 | 71 | 1012.5 |
| 20260510181804 | 74 | 55 | 5.2 | 13.0 | 0.00 | 0.00 | 0.00 | 69 | 1012.8 |
| 20260510180926 | 77 | 50 | 7.0 | 14.8 | 0.00 | 0.00 | 0.00 | 65 | 1013.0 |
| 20260510180004 | 82 | 120 | 0.9 | 4.3 | 0.00 | 0.00 | 0.00 | 70 | 1012.5 |
| 20260510175425 | 82 | 145 | 1.7 | 5.2 | 0.00 | 0.00 | 0.00 | 69 | 1012.4 |
| 20260510174504 | 83 | 153 | 1.7 | 6.1 | 0.00 | 0.00 | 0.00 | 69 | 1012.5 |
| 20260510173604 | 82 | 153 | 2.6 | 5.2 | 0.00 | 0.00 | 0.00 | 70 | 1012.3 |
| 20260510172725 | 82 | 156 | 2.6 | 7.8 | 0.00 | 0.00 | 0.00 | 69 | 1012.3 |
| 20260510171826 | 83 | 153 | 3.5 | 7.8 | 0.00 | 0.00 | 0.00 | 68 | 1012.2 |
| 20260510170904 | 83 | 163 | 3.5 | 12.2 | 0.00 | 0.00 | 0.00 | 70 | 1011.8 |
| 20260510170004 | 82 | 168 | 4.3 | 10.4 | 0.00 | 0.00 | 0.00 | 69 | 1011.4 |
| 20260510165404 | 82 | 172 | 4.3 | 10.4 | 0.00 | 0.00 | 0.00 | 70 | 1011.5 |
| 20260510164504 | 82 | 158 | 6.1 | 14.8 | 0.00 | 0.00 | 0.00 | 70 | 1011.5 |
| 20260510163604 | 82 | 154 | 4.3 | 14.8 | 0.00 | 0.00 | 0.00 | 70 | 1011.3 |
| 20260510162704 | 81 | 155 | 6.1 | 13.9 | 0.00 | 0.00 | 0.00 | 71 | 1011.1 |
| 20260510161804 | 80 | 158 | 7.0 | 14.8 | 0.00 | 0.00 | 0.00 | 72 | 1010.8 |
| 20260510160904 | 80 | 156 | 6.1 | 15.6 | 0.00 | 0.00 | 0.00 | 73 | 1010.6 |
| 20260510160005 | 79 | 159 | 6.1 | 12.2 | 0.00 | 0.00 | 0.00 | 73 | 1010.7 |
| 20260510155404 | 79 | 151 | 6.1 | 13.9 | 0.00 | 0.00 | 0.00 | 73 | 1010.8 |
| 20260510154504 | 78 | 156 | 7.0 | 13.0 | 0.00 | 0.00 | 0.00 | 73 | 1010.9 |
| 20260510153605 | 77 | 146 | 7.0 | 17.4 | 0.00 | 0.00 | 0.00 | 73 | 1010.8 |
| 20260510152704 | 77 | 148 | 7.0 | 17.4 | 0.00 | 0.00 | 0.00 | 72 | 1010.9 |
| 20260510151804 | 76 | 149 | 6.1 | 14.8 | 0.00 | 0.00 | 0.00 | 73 | 1010.9 |
| 20260510150904 | 76 | 147 | 6.1 | 19.1 | 0.00 | 0.00 | 0.00 | 73 | 1011.1 |
| 20260510150004 | 75 | 147 | 6.1 | 17.4 | 0.00 | 0.00 | 0.00 | 73 | 1011.2 |
| 20260510145405 | 75 | 146 | 6.1 | 17.4 | 0.00 | 0.00 | 0.00 | 73 | 1011.3 |
| 20260510144505 | 75 | 135 | 3.5 | 12.2 | 0.00 | 0.00 | 0.00 | 73 | 1011.6 |
| 20260510143625 | 74 | 132 | 4.3 | 12.2 | 0.00 | 0.00 | 0.00 | 74 | 1011.6 |
| 20260510142704 | 74 | 129 | 2.6 | 12.2 | 0.00 | 0.00 | 0.00 | 75 | 1011.7 |
| 20260510141825 | 73 | 133 | 3.5 | 9.6 | 0.00 | 0.00 | 0.00 | 76 | 1011.9 |
| 20260510140904 | 72 | 135 | 3.5 | 9.6 | 0.00 | 0.00 | 0.00 | 75 | 1011.9 |
| 20260510140004 | 72 | 132 | 2.6 | 7.8 | 0.00 | 0.00 | 0.00 | 75 | 1012.0 |
| 20260510135404 | 72 | 136 | 2.6 | 8.7 | 0.00 | 0.00 | 0.00 | 75 | 1011.9 |
| 20260510134505 | 71 | 138 | 2.6 | 7.0 | 0.00 | 0.00 | 0.00 | 76 | 1011.8 |
| 20260510133604 | 71 | 134 | 2.6 | 7.8 | 0.00 | 0.00 | 0.00 | 76 | 1011.7 |
| 20260510132704 | 70 | 136 | 1.7 | 4.3 | 0.00 | 0.00 | 0.00 | 78 | 1011.7 |
| 20260510131804 | 70 | 127 | 1.7 | 4.3 | 0.00 | 0.00 | 0.00 | 78 | 1011.7 |
| 20260510130904 | 70 | 132 | 2.6 | 7.8 | 0.00 | 0.00 | 0.00 | 78 | 1011.7 |
| 20260510130004 | 70 | 129 | 1.7 | 7.0 | 0.00 | 0.00 | 0.00 | 80 | 1011.6 |
| 20260510125425 | 70 | 131 | 1.7 | 6.1 | 0.00 | 0.00 | 0.00 | 81 | 1011.6 |
| 20260510124504 | 69 | 133 | 2.6 | 6.1 | 0.00 | 0.00 | 0.00 | 82 | 1011.3 |
| 20260510123625 | 69 | 138 | 1.7 | 7.0 | 0.00 | 0.00 | 0.00 | 82 | 1011.2 |
| 20260510122704 | 69 | 123 | 1.7 | 6.1 | 0.00 | 0.00 | 0.00 | 82 | 1011.3 |
| 20260510121804 | 69 | 115 | 1.7 | 4.3 | 0.00 | 0.00 | 0.00 | 82 | 1011.2 |
| 20260510120925 | 69 | 89 | 0.9 | 4.3 | 0.00 | 0.00 | 0.00 | 82 | 1011.1 |
| 20260510120004 | 69 | 92 | 1.7 | 6.1 | 0.00 | 0.00 | 0.00 | 82 | 1011.1 |
| 20260510115404 | 69 | 89 | 1.7 | 6.1 | 0.00 | 0.00 | 0.00 | 82 | 1011.0 |
| 20260510114505 | 69 | 81 | 1.7 | 6.1 | 0.00 | 0.00 | 0.00 | 83 | 1010.8 |
| 20260510113604 | 70 | 82 | 3.5 | 8.7 | 0.00 | 0.00 | 0.00 | 83 | 1010.7 |
| 20260510112704 | 70 | 86 | 3.5 | 7.8 | 0.00 | 0.00 | 0.00 | 85 | 1010.6 |
| 20260510111804 | 70 | 67 | 6.1 | 13.0 | 0.00 | 0.00 | 0.00 | 88 | 1010.5 |
| 20260510110904 | 72 | 73 | 3.5 | 10.4 | 0.00 | 0.00 | 0.00 | 91 | 1010.5 |
| 20260510110005 | 71 | 76 | 2.6 | 7.8 | 0.00 | 0.00 | 0.00 | 91 | 1010.5 |
| 20260510105404 | 71 | 70 | 2.6 | 7.8 | 0.00 | 0.00 | 0.00 | 91 | 1010.4 |
| 20260510104504 | 71 | 70 | 3.5 | 9.6 | 0.00 | 0.00 | 0.00 | 91 | 1010.3 |
| 20260510103625 | 70 | 65 | 3.5 | 10.4 | 0.00 | 0.00 | 0.00 | 91 | 1010.2 |
| 20260510102725 | 70 | 64 | 2.6 | 7.8 | 0.00 | 0.00 | 0.00 | 91 | 1010.1 |
| 20260510101805 | 69 | 66 | 2.6 | 5.2 | 0.00 | 0.00 | 0.00 | 90 | 1010.0 |
| 20260510100904 | 69 | 75 | 1.7 | 4.3 | 0.00 | 0.00 | 0.00 | 89 | 1009.8 |
| 20260510100004 | 69 | 60 | 3.5 | 7.8 | 0.00 | 0.00 | 0.00 | 89 | 1009.8 |
| 20260510095404 | 70 | 53 | 3.5 | 7.8 | 0.00 | 0.00 | 0.00 | 89 | 1009.8 |
| 20260510094504 | 70 | 57 | 2.6 | 7.0 | 0.00 | 0.00 | 0.00 | 89 | 1009.4 |
| 20260510093604 | 70 | 66 | 2.6 | 6.1 | 0.00 | 0.00 | 0.00 | 88 | 1009.0 |
| 20260510092725 | 70 | 64 | 0.9 | 5.2 | 0.00 | 0.00 | 0.00 | 87 | 1008.8 |
| 20260510091804 | 71 | 63 | 2.6 | 4.3 | 0.00 | 0.00 | 0.00 | 86 | 1008.8 |
| 20260510090904 | 71 | 71 | 1.7 | 4.3 | 0.00 | 0.00 | 0.00 | 85 | 1008.6 |
| 20260510090025 | 72 | 80 | 0.9 | 2.6 | 0.00 | 0.00 | 0.00 | 85 | 1008.4 |
| 20260510085425 | 72 | 0 | 0.0 | 0.0 | 0.00 | 0.00 | 0.00 | 85 | 1008.2 |
| 20260510084504 | 72 | 0 | 0.0 | 0.0 | 0.00 | 0.00 | 0.00 | 84 | 1007.9 |
| 20260510083604 | 72 | 164 | 0.9 | 3.5 | 0.00 | 0.00 | 0.00 | 85 | 1007.8 |
| 20260510082725 | 72 | 157 | 1.7 | 4.3 | 0.00 | 0.00 | 0.00 | 85 | 1007.6 |
| 20260510081805 | 73 | 158 | 1.7 | 5.2 | 0.00 | 0.00 | 0.00 | 85 | 1007.3 |
| 20260510080904 | 73 | 160 | 2.6 | 6.1 | 0.00 | 0.00 | 0.00 | 85 | 1007.1 |
| 20260510080004 | 72 | 164 | 3.5 | 8.7 | 0.00 | 0.00 | 0.00 | 86 | 1007.1 |
| 20260510075404 | 72 | 155 | 1.7 | 7.0 | 0.00 | 0.00 | 0.00 | 86 | 1007.1 |
| 20260510074504 | 72 | 117 | 0.0 | 1.7 | 0.00 | 0.00 | 0.00 | 85 | 1007.5 |
| 20260510073604 | 72 | 0 | 0.0 | 0.0 | 0.00 | 0.00 | 0.00 | 85 | 1007.6 |
| 20260510072704 | 73 | 0 | 0.0 | 0.0 | 0.00 | 0.00 | 0.00 | 84 | 1007.7 |
| 20260510071804 | 73 | 0 | 0.0 | 0.0 | 0.00 | 0.00 | 0.00 | 84 | 1007.7 |
| 20260510070904 | 73 | 49 | 0.9 | 2.6 | 0.00 | 0.00 | 0.00 | 84 | 1008.0 |
| 20260510070004 | 73 | 159 | 0.9 | 7.0 | 0.00 | 0.00 | 0.00 | 83 | 1007.9 |
| 20260510065404 | 73 | 161 | 3.5 | 7.0 | 0.00 | 0.00 | 0.00 | 84 | 1007.2 |
| 20260510064505 | 73 | 163 | 3.5 | 7.0 | 0.00 | 0.00 | 0.00 | 84 | 1006.8 |
| 20260510063604 | 73 | 164 | 2.6 | 7.0 | 0.00 | 0.00 | 0.00 | 83 | 1006.8 |
| 20260510062704 | 73 | 163 | 2.6 | 6.1 | 0.00 | 0.00 | 0.00 | 82 | 1006.7 |
| 20260510061825 | 74 | 163 | 3.5 | 7.0 | 0.00 | 0.00 | 0.00 | 81 | 1006.6 |
| 20260510060904 | 74 | 163 | 4.3 | 8.7 | 0.00 | 0.00 | 0.00 | 80 | 1006.5 |
| 20260510060004 | 74 | 163 | 4.3 | 9.6 | 0.00 | 0.00 | 0.00 | 79 | 1006.5 |
| 20260510055404 | 74 | 163 | 3.5 | 9.6 | 0.00 | 0.00 | 0.00 | 78 | 1006.5 |
| 20260510054504 | 73 | 166 | 3.5 | 7.8 | 0.00 | 0.00 | 0.00 | 77 | 1006.4 |
| 20260510053604 | 73 | 170 | 3.5 | 8.7 | 0.00 | 0.00 | 0.00 | 76 | 1006.3 |
| 20260510052704 | 73 | 166 | 2.6 | 7.8 | 0.00 | 0.00 | 0.00 | 76 | 1006.1 |
| 20260510051825 | 73 | 162 | 2.6 | 6.1 | 0.00 | 0.00 | 0.00 | 75 | 1006.0 |
| 20260510050925 | 73 | 155 | 1.7 | 5.2 | 0.00 | 0.00 | 0.00 | 75 | 1005.9 |
| 20260510050005 | 74 | 153 | 1.7 | 6.1 | 0.00 | 0.00 | 0.00 | 74 | 1006.0 |
| 20260510045404 | 74 | 154 | 1.7 | 6.1 | 0.00 | 0.00 | 0.00 | 73 | 1006.0 |
| 20260510044504 | 74 | 153 | 1.7 | 5.2 | 0.00 | 0.00 | 0.00 | 73 | 1006.1 |
| 20260510043604 | 75 | 151 | 1.7 | 7.8 | 0.00 | 0.00 | 0.00 | 72 | 1006.2 |
| 20260510042704 | 75 | 156 | 1.7 | 6.1 | 0.00 | 0.00 | 0.00 | 72 | 1006.2 |
| 20260510041804 | 75 | 151 | 2.6 | 6.1 | 0.00 | 0.00 | 0.00 | 72 | 1006.3 |
| 20260510040904 | 76 | 152 | 2.6 | 6.1 | 0.00 | 0.00 | 0.00 | 71 | 1006.3 |
| 20260510040004 | 76 | 151 | 2.6 | 6.1 | 0.00 | 0.00 | 0.00 | 71 | 1006.4 |
| 20260510035425 | 76 | 150 | 1.7 | 6.1 | 0.00 | 0.00 | 0.00 | 71 | 1006.4 |
| 20260510034504 | 76 | 146 | 1.7 | 4.3 | 0.00 | 0.00 | 0.00 | 70 | 1006.4 |
| 20260510033625 | 76 | 148 | 0.9 | 4.3 | 0.00 | 0.00 | 0.00 | 69 | 1006.4 |
| 20260510032725 | 77 | 151 | 0.9 | 3.5 | 0.00 | 0.00 | 0.00 | 67 | 1006.4 |
| 20260510031804 | 77 | 154 | 0.9 | 3.5 | 0.00 | 0.00 | 0.00 | 66 | 1006.4 |
| 20260510030904 | 78 | 146 | 0.9 | 3.5 | 0.00 | 0.00 | 0.00 | 65 | 1006.4 |
| 20260510030025 | 78 | 149 | 1.7 | 4.3 | 0.00 | 0.00 | 0.00 | 63 | 1006.3 |
| 20260510025404 | 78 | 154 | 0.9 | 4.3 | 0.00 | 0.00 | 0.00 | 62 | 1006.3 |
| 20260510024504 | 79 | 155 | 0.9 | 1.7 | 0.00 | 0.00 | 0.00 | 62 | 1006.1 |
| 20260510023604 | 80 | 155 | 0.9 | 2.6 | 0.00 | 0.00 | 0.00 | 61 | 1006.0 |
| 20260510022725 | 80 | 155 | 0.9 | 2.6 | 0.00 | 0.00 | 0.00 | 59 | 1005.9 |
| 20260510021804 | 81 | 155 | 0.9 | 1.7 | 0.00 | 0.00 | 0.00 | 56 | 1005.8 |
| 20260510020904 | 82 | 155 | 1.7 | 3.5 | 0.00 | 0.00 | 0.00 | 54 | 1005.7 |
| 20260510020005 | 82 | 155 | 0.9 | 3.5 | 0.00 | 0.00 | 0.00 | 53 | 1005.5 |
| 20260510015404 | 83 | 155 | 0.9 | 2.6 | 0.00 | 0.00 | 0.00 | 52 | 1005.4 |
| 20260510014504 | 84 | 155 | 0.9 | 2.6 | 0.00 | 0.00 | 0.00 | 52 | 1005.4 |
| 20260510013604 | 84 | 155 | 0.9 | 2.6 | 0.00 | 0.00 | 0.00 | 51 | 1005.3 |
| 20260510012704 | 85 | 155 | 0.9 | 2.6 | 0.00 | 0.00 | 0.00 | 50 | 1005.2 |
| 20260510011825 | 86 | 155 | 0.0 | 1.7 | 0.00 | 0.00 | 0.00 | 49 | 1005.1 |
| 20260510010904 | 86 | 155 | 0.9 | 2.6 | 0.00 | 0.00 | 0.00 | 49 | 1005.0 |
| 20260510010004 | 86 | 154 | 0.9 | 1.7 | 0.00 | 0.00 | 0.00 | 48 | 1005.0 |
| 20260510005404 | 86 | 155 | 1.7 | 4.3 | 0.00 | 0.00 | 0.00 | 47 | 1005.0 |
| 20260510004504 | 87 | 155 | 1.7 | 4.3 | 0.00 | 0.00 | 0.00 | 46 | 1004.9 |
| 20260510003604 | 87 | 155 | 1.7 | 5.2 | 0.00 | 0.00 | 0.00 | 45 | 1004.9 |
| 20260510002725 | 88 | 149 | 1.7 | 4.3 | 0.00 | 0.00 | 0.00 | 44 | 1004.8 |
| 20260510001804 | 88 | 152 | 1.7 | 3.5 | 0.00 | 0.00 | 0.00 | 44 | 1004.9 |
| 20260510000904 | 89 | 156 | 1.7 | 4.3 | 0.00 | 0.00 | 0.00 | 44 | 1004.9 |
| 20260510000025 | 89 | 164 | 1.7 | 4.3 | 0.00 | 0.00 | 0.00 | 43 | 1004.8 |
| 20260509235425 | 90 | 159 | 1.7 | 3.5 | 0.00 | 0.00 | 0.00 | 43 | 1004.8 |
| 20260509234504 | 91 | 138 | 0.9 | 4.3 | 0.00 | 0.00 | 0.00 | 42 | 1004.9 |
| 20260509233604 | 92 | 69 | 1.7 | 4.3 | 0.00 | 0.00 | 0.00 | 42 | 1004.9 |
| 20260509232704 | 92 | 60 | 2.6 | 5.2 | 0.00 | 0.00 | 0.00 | 40 | 1004.8 |
| 20260509231805 | 93 | 10 | 1.7 | 4.3 | 0.00 | 0.00 | 0.00 | 42 | 1004.8 |
| 20260509230925 | 93 | 56 | 1.7 | 4.3 | 0.00 | 0.00 | 0.00 | 41 | 1004.8 |
| 20260509230004 | 93 | 67 | 0.9 | 3.5 | 0.00 | 0.00 | 0.00 | 41 | 1004.9 |
| 20260509225404 | 93 | 89 | 0.9 | 5.2 | 0.00 | 0.00 | 0.00 | 41 | 1004.9 |
| 20260509224504 | 93 | 65 | 1.7 | 3.5 | 0.00 | 0.00 | 0.00 | 42 | 1004.9 |
| 20260509223604 | 94 | 47 | 1.7 | 3.5 | 0.00 | 0.00 | 0.00 | 43 | 1004.9 |
| 20260509222725 | 94 | 48 | 1.7 | 3.5 | 0.00 | 0.00 | 0.00 | 40 | 1004.9 |
| 20260509221804 | 94 | 18 | 1.7 | 3.5 | 0.00 | 0.00 | 0.00 | 40 | 1004.8 |
| 20260509220904 | 94 | 35 | 0.9 | 4.3 | 0.00 | 0.00 | 0.00 | 41 | 1004.8 |
| 20260509220004 | 93 | 49 | 1.7 | 5.2 | 0.00 | 0.00 | 0.00 | 42 | 1004.9 |
| 20260509215404 | 93 | 52 | 2.6 | 6.1 | 0.00 | 0.00 | 0.00 | 43 | 1004.9 |
| 20260509214525 | 93 | 28 | 3.5 | 7.8 | 0.00 | 0.00 | 0.00 | 41 | 1005.0 |
| 20260509213604 | 93 | 360 | 2.6 | 7.0 | 0.00 | 0.00 | 0.00 | 42 | 1005.1 |
| 20260509212704 | 93 | 28 | 2.6 | 6.1 | 0.00 | 0.00 | 0.00 | 40 | 1005.2 |
| 20260509211825 | 93 | 17 | 2.6 | 6.1 | 0.00 | 0.00 | 0.00 | 41 | 1005.4 |
| 20260509210903 | 93 | 47 | 2.6 | 7.0 | 0.00 | 0.00 | 0.00 | 41 | 1005.5 |
| 20260509210025 | 92 | 31 | 2.6 | 7.0 | 0.00 | 0.00 | 0.00 | 41 | 1005.5 |